User: anonymous   Login
Location: Unspecified
(0.0000°N, 0.0000°E)
Time: 19:02:13
(UTC+00:00)
Language:

TBA - TO BE ASSIGNED - Orbit

View from above orbital plane
View from above orbital plane
View from above satellite
View from above satellite

Ground track
Ground track

The orbit is defined by the following mean orbital elements,

1 67974U          26145.45074066 +.00000000 +00000-0 +87275-3 0 00008
2 67974  97.2858 155.4845 0000611  52.8947 307.2352 15.33462862    01
Epoch (UTC): 25 May 2026 10:49:03
Eccentricity: 0.0000611
inclination: 97.2858°
perigee height: 465 km
apogee height: 466 km
right ascension of ascending node: 155.4845°
argument of perigee: 52.8947°
revolutions per day: 15.33462862
mean anomaly at epoch: 307.2352°

The dashed part of the orbit path shows where the satellite is in the earth's shadow,  

DLR